This demonstration page uses our WeatherBlox Daily Observations layout. Learn more.

Hourly Observations for November 9, 2015

Temp ( °F °C ) Dew Point ( °F °C ) Humidity (%) Winds ( mph kmh ) Pressure ( in mb ) Visibility ( mi km ) Precip ( " mm )
12:15 am 00:15 Clear 42 5.3 34 1.3 76 76 S 9 15 30.12 1020 10 16.0934 0 0
12:35 am 00:35 Clear 40 4.7 34 1.2 78 78 S 8 13 30.12 1020 10 16.0934 0 0
12:55 am 00:55 Clear 40 4.3 34 1 79 79 S 8 13 30.12 1020 10 16.0934 0 0
1:15 am 01:15 Clear 39 4.1 34 1 80 80 S 7 11 30.12 1020 10 16.0934 0 0
1:35 am 01:35 Clear 39 3.8 34 0.9 82 82 S 9 15 30.12 1020 10 16.0934 0 0
1:55 am 01:55 Clear 38 3.6 33 0.7 82 82 S 6 9 30.12 1020 10 16.0934 0 0
2:15 am 02:15 Clear 37 3 33 0.3 83 83 S 7 11 30.09 1019 10 16.0934 0 0
2:35 am 02:35 Clear 36 2 32 0 87 87 SSE 5 7 30.12 1020 10 16.0934 0 0
2:55 am 02:55 Clear 36 2.2 32 0.1 86 86 S 5 7 30.12 1020 10 16.0934 0 0
3:15 am 03:15 Clear 36 2.2 32 0 86 86 SSE 6 9 30.12 1020 10 16.0934 0 0
3:35 am 03:35 Clear 36 2 32 0 87 87 SSE 6 9 30.12 1020 10 16.0934 0 0
3:55 am 03:55 Clear 36 2.1 32 0 86 86 SSE 6 9 30.12 1020 10 16.0934 0 0
4:15 am 04:15 Clear 37 2.6 33 0.5 86 86 S 3 6 30.09 1019 10 16.0934 0 0
4:35 am 04:35 Clear 36 2.2 32 0.1 86 86 Calm 30.12 1020 10 16.0934 0 0
4:55 am 04:55 Clear 35 1.5 32 0 90 90 S 3 6 30.12 1020 10 16.0934 0 0
5:15 am 05:15 Clear 35 1.5 32 -0.1 89 89 S 3 6 30.12 1020 10 16.0934 0 0
5:35 am 05:35 Clear 35 1.5 32 -0.1 89 89 S 5 7 30.12 1020 10 16.0934 0 0
5:55 am 05:55 Clear 35 1.5 32 0 90 90 S 6 9 30.12 1020 10 16.0934 0 0
6:15 am 06:15 Clear 34 1.2 31 -0.3 90 90 S 6 9 30.12 1020 10 16.0934 0 0
6:35 am 06:35 Clear 34 1 31 -0.5 90 90 S 5 7 30.12 1020 10 16.0934 0 0
6:55 am 06:55 Clear 33 0.8 31 -0.5 91 91 S 3 6 30.12 1020 10 16.0934 0 0
7:15 am 07:15 Clear 33 0.6 31 -0.8 90 90 S 5 7 30.12 1020 10 16.0934 0 0
7:35 am 07:35 Sunny 34 1.2 32 -0.1 91 91 S 5 7 30.12 1020 10 16.0934 0 0
7:55 am 07:55 Sunny 36 2 32 0 87 87 S 5 7 30.15 1021 10 16.0934 0 0
8:15 am 08:15 Sunny 37 2.7 34 0.9 88 88 SSE 5 7 30.15 1021 10 16.0934 0 0
8:35 am 08:35 Sunny 40 4.4 35 1.9 84 84 S 8 13 30.12 1020 10 16.0934 0 0
8:55 am 08:55 Sunny 42 5.5 36 2.2 80 80 S 10 17 30.12 1020 10 16.0934 0 0
9:15 am 09:15 Sunny 44 6.5 37 2.5 76 76 S 10 17 30.09 1019 10 16.0934 0 0
9:35 am 09:35 Sunny 45 7.3 37 2.5 72 72 S 10 17 30.09 1019 10 16.0934 0 0
9:55 am 09:55 Sunny 47 8.6 37 3 68 68 S 13 20 30.09 1019 10 16.0934 0 0
10:15 am 10:15 Sunny 49 9.6 37 2.7 62 62 S 12 19 30.03 1017 10 16.0934 0 0
10:35 am 10:35 Sunny 51 10.3 36 2.4 58 58 S 14 22 30.03 1017 10 16.0934 0 0
10:55 am 10:55 Sunny 52 11.1 37 2.5 56 56 S 14 22 30.03 1017 10 16.0934 0 0
11:15 am 11:15 Sunny 53 11.7 36 2.2 52 52 S 14 22 30.03 1017 10 16.0934 0 0
11:35 am 11:35 Sunny 55 12.5 36 2.3 50 50 S 15 24 30 1016 10 16.0934 0 0
11:55 am 11:55 Sunny 55 13 36 2.4 49 49 S 15 24 29.97 1015 10 16.0934 0 0
12:15 pm 12:15 Sunny 56 13.2 36 2.3 48 48 S 15 24 29.97 1015 10 16.0934 0 0
12:35 pm 12:35 Sunny 56 13.6 37 2.5 47 47 S 14 22 29.97 1015 10 16.0934 0 0
12:55 pm 12:55 Sunny 58 14.4 37 2.6 45 45 S 15 24 29.97 1015 10 16.0934 0 0
1:15 pm 13:15 Sunny 59 14.8 36 2.4 43 43 S 17 28 29.94 1014 10 16.0934 0 0
1:35 pm 13:35 Sunny 59 15.1 36 2.3 42 42 S 16 26 29.94 1014 10 16.0934 0 0
1:55 pm 13:55 Sunny 60 15.6 36 2.3 41 41 S 13 20 29.91 1013 10 16.0934 0 0
2:15 pm 14:15 Sunny 61 16.1 36 2.2 39 39 S 15 24 29.88 1012 10 16.0934 0 0
2:35 pm 14:35 Sunny 62 16.5 35 1.9 38 38 SSE 16 26 29.88 1012 10 16.0934 0 0
2:55 pm 14:55 Sunny 62 16.6 35 1.5 36 36 S 20 31 29.88 1012 10 16.0934 0 0
3:15 pm 15:15 Sunny 62 16.5 35 1.5 37 37 S 20 31 29.88 1012 10 16.0934 0 0
3:35 pm 15:35 Sunny 62 16.6 35 1.5 36 36 S 20 31 29.88 1012 10 16.0934 0 0
3:55 pm 15:55 Sunny 62 16.5 35 1.5 37 37 S 15 24 29.88 1012 10 16.0934 0 0
4:15 pm 16:15 Sunny 62 16.5 35 1.8 37 37 S 17 28 29.88 1012 10 16.0934 0 0
4:35 pm 16:35 Sunny 61 16 35 1.9 39 39 S 13 20 29.88 1012 10 16.0934 0 0
4:55 pm 16:55 Sunny 60 15.5 36 2 40 40 S 15 24 29.85 1011 10 16.0934 0 0
5:15 pm 17:15 Sunny 58 14.6 36 2.1 43 43 SSE 13 20 29.88 1012 10 16.0934 0 0
5:35 pm 17:35 Clear 56 13.6 36 2.1 46 46 SSE 12 19 29.88 1012 10 16.0934 0 0
5:55 pm 17:55 Clear 52 11.3 36 2 53 53 SSE 9 15 29.94 1014 10 16.0934 0 0
6:15 pm 18:15 Clear 50 10 36 2 58 58 SSE 8 13 29.94 1014 10 16.0934 0 0
6:35 pm 18:35 Clear 48 8.7 35 1.7 62 62 SSE 8 13 29.94 1014 10 16.0934 0 0
6:55 pm 18:55 Clear 47 8.2 35 1.7 64 64 SSE 8 13 29.97 1015 10 16.0934 0 0
7:15 pm 19:15 Clear 47 8.6 36 2.1 64 64 SSE 9 15 29.94 1014 10 16.0934 0 0
7:35 pm 19:35 Clear 46 8 36 2.2 67 67 SSE 9 15 29.97 1015 10 16.0934 0 0
7:55 pm 19:55 Clear 46 8 36 2.1 67 67 SSE 8 13 29.97 1015 10 16.0934 0 0
8:15 pm 20:15 Clear 45 7.3 36 2.1 70 70 SSE 7 11 29.97 1015 10 16.0934 0 0
8:35 pm 20:35 Clear 45 7.1 36 2.2 71 71 SSE 8 13 29.97 1015 10 16.0934 0 0
8:55 pm 20:55 Clear 46 8 37 2.5 69 69 SSE 10 17 29.97 1015 10 16.0934 0 0
9:15 pm 21:15 Clear 45 7.3 36 2.4 71 71 SSE 9 15 29.97 1015 10 16.0934 0 0
9:35 pm 21:35 Clear 46 7.6 36 2.3 69 69 SSE 9 15 29.97 1015 10 16.0934 0 0
9:55 pm 21:55 Clear 45 7.2 36 2.1 70 70 SSE 9 15 29.97 1015 10 16.0934 0 0
10:15 pm 22:15 Clear 47 8.1 36 2.3 67 67 S 12 19 29.97 1015 10 16.0934 0 0
10:35 pm 22:35 Clear 47 8.3 36 2 65 65 S 13 20 29.97 1015 10 16.0934 0 0
10:55 pm 22:55 Clear 46 8 35 1.9 66 66 SSE 10 17 29.97 1015 10 16.0934 0 0
11:15 pm 23:15 Clear 46 8 35 1.7 65 65 SSE 10 17 29.94 1014 10 16.0934 0 0
11:35 pm 23:35 Clear 45 7.3 35 1.6 67 67 SSE 9 15 29.94 1014 10 16.0934 0 0
11:55 pm 23:55 Clear 45 7.2 35 1.6 68 68 S 12 19 29.94 1014 10 16.0934 0 0

Powered by AerisWeather